Погода в Пеньках

Россия / Костромская область     58°00′52″N   42°43′05″E
темп.,
°C
ветер,
м/с
пор.,
м/с
влажн.,
%
обл.,
%
осадки,
мм/ч
давл.,
гПа
погр.,
м
6 марта, сб
сб600:00−16зсз23948 0.0 101144
03:00−17з239723 0.0 101333
06:00−16зсз239897 0.1 101339
09:00−14зсз249574 0.1 1014178
12:00−10зсз358976 0.0 1014658
15:00−9зсз358588 0.1 1012854
18:00−13з229399 0.1 101220
21:00−16юз229855 0.1 101220
7 марта, вс
вс700:00−16ююз239874 0.0 101049
03:00−17ю369976 0.1 1007119
06:00−15ю499691 0.0 1004255
09:00−11ююв5119396 0.1 1000525
12:00−8ююв51094100 1.1 996862
15:00−7ююв5994100 2.1 992819
18:00−7юв41095100 0.8 989615
21:00−6вюв4995100 2.1 987499
8 марта, пн
пн800:00−7всв2696100 1.4 986275
03:00−7сз1397100 3.0 988167
06:00−9с3696100 1.4 989329
09:00−9с4793100 2.1 992552
12:00−9с4791100 0.3 994683
15:00−10с4890100 0.6 997776
18:00−11ссз4992100 0.2 1001676
21:00−14ссз3109397 0.3 1004441
9 марта, вт
вт900:00−17ссз389587 0.0 1007240
03:00−21ссз399679 0.0 1009209
06:00−25ссз379710 0.0 1011158
09:00−22ссз379510 0.0 1013258
12:00−18ссз359266 0.0 1014454
15:00−16сз469083 0.1 1015626
18:00−20ссз3795100 0.1 1016188
21:00−24ссз379794 0.1 1019155
10 марта, ср
ср1000:00−27ссз35972 0.0 102089
03:00−29ссз34971 0.0 102179
06:00−31ссз35970 0.0 102387
09:00−26с35950 0.0 1024231
12:00−19ссз24890 0.0 1024410
15:00−16сз35840 0.0 1023606
18:00−19зсз239415 0.0 102338
21:00−21зсз369938 0.0 1024109